Flag for U.S.A. Weather past 2 weeks in Jefferson City, Missouri, U.S.A.

Now
41 °F

Clear.


Feels Like: 39 °F
Forecast: 42 / 69 °F
Wind: 3 mph from Northwest

Location: Jefferson City Memorial Airport

Current Time: Apr 28, 2015 at 7:23:40 AM

Latest Report: Apr 28, 2015 at 6:53 AM


Visibility: 10 mi

Pressure: 30.11 "Hg

Humidity: 89%

Dew point: 38 °F

Location of Jefferson CityLocation

Historic Weather in Jefferson City — Graph

°F

Jefferson City temperature yesterday

Maximum temperature yesterday: 67 °F (at 3:53 PM)
Minimum temperature yesterday: 41 °F (at 5:53 AM)
Average temperature yesterday: 55 °F

Past Weeks' High & Low Weather Summary

 TemperatureHumidityPressure
High80 °F (Apr 17, 3:53 PM)100% (Apr 19, 3:58 AM)30.22 "Hg (Apr 19, 3:58 AM)
Low34 °F (Apr 23, 6:53 AM)16% (Apr 14, 1:53 PM)29.42 "Hg (Apr 25, 12:53 PM)
Average58 °F58%29.90 "Hg
* Reported Apr 13 5:53 AM — Apr 28 5:53 AM, Jefferson City, Weather by CustomWeather, © 2015

Note: Actual official high and low records may vary slightly from our data, if they occured in-between our weather recording intervals... More about our weather records

Advertising

Jefferson City weather history for previous 24 hours

 ConditionsComfort  
Time TempWeatherWind HumidityBarometerVisibility
5:53 AM
Tue, Apr 28
39 °FClear.No wind89%30.09 "Hg10 mi
4:53 AM40 °FClear.No wind86%30.09 "Hg10 mi
3:53 AM41 °FClear.No wind89%30.09 "Hg10 mi
2:53 AM43 °FClear.No wind82%30.08 "Hg10 mi
1:53 AM44 °FClear.No wind79%30.09 "Hg10 mi
12:53 AM48 °FClear.No wind68%30.08 "Hg10 mi
11:53 PM
Mon, Apr 27
56 °FClear.7 mph47%30.06 "Hg10 mi
10:53 PM57 °FClear.8 mph46%30.05 "Hg10 mi
9:53 PM59 °FClear.9 mph42%30.05 "Hg10 mi
8:53 PM60 °FSunny.6 mph39%30.03 "Hg10 mi
7:53 PM63 °FSunny.6 mph33%30.01 "Hg10 mi
6:53 PM65 °FSunny.10 mph31%30.00 "Hg10 mi
5:53 PM66 °FSunny.9 mph28%30.01 "Hg10 mi
4:53 PM67 °FSunny.14 mph26%30.02 "Hg10 mi
3:53 PM67 °FSunny.14 mph27%30.02 "Hg10 mi
2:53 PM66 °FSunny.10 mph29%30.03 "Hg10 mi
1:53 PM64 °FSunny.8 mph32%30.05 "Hg10 mi
12:53 PM64 °FSunny.7 mph30%30.08 "Hg10 mi
11:53 AM59 °FSunny.12 mph36%30.13 "Hg10 mi
10:53 AM58 °FSunny.8 mph39%30.13 "Hg10 mi
9:53 AM54 °FSunny.6 mph51%30.13 "Hg10 mi
8:53 AM49 °FSunny.No wind71%30.11 "Hg10 mi
7:53 AM44 °FSunny.No wind82%30.08 "Hg10 mi
Weather by CustomWeather, © 2015

See weather overviewHow to use our weather pages